Regional Weather Roundup
Issued by NWS

Home | Current Version | Previous Version | Graphics & Text | Print | Product List | Glossary Off
Versions: 1 2 3 4 5 6 7 8 9 10 11 12 13 14 15 16 17 18 19 20 21 22 23 24 25 26 27 28 29 30 31 32 33 34 35 36 37 38 39 40 41 42 43 44 45 46 47 48 49 50

000
ASUS43 KMKX 310900
RWRWI

WISCONSIN REGIONAL WEATHER ROUNDUP
NATIONAL WEATHER SERVICE MILWAUKEE/SULLIVAN WI
400 AM CDT SUN JUL 31 2016

NOTE: "FAIR" INDICATES FEW OR NO CLOUDS BELOW 12,000 FEET WITH NO
SIGNIFICANT WEATHER AND/OR OBSTRUCTIONS TO VISIBILITY.

WIZ001-002-006>008-014>016-023>028-311000-
NORTHWEST WISCONSIN

CITY           SKY/WX    TMP DP  RH WIND       PRES   REMARKS
SUPERIOR ARPT  CLOUDY    63  62  97 E3        30.03S
ASHLAND        PTCLDY    57  56  96 CALM      30.05R FOG
HAYWARD        PTCLDY    64  57  78 CALM      30.05S
SIREN          NOT AVBL
CUMBERLAND     CLEAR     61  59  94 SE3       30.05S
RICE LAKE      PTCLDY    64  58  83 SE7       30.06R
CHETEK         MOCLDY    63  59  87 SE5       30.05R
LADYSMITH      CLEAR     60  55  85 E5        30.08S
EAU CLAIRE     NOT AVBL
MENOMONIE      PTCLDY    63  60  90 CALM      30.04R
NEW RICHMOND   MOCLDY    64  63  97 E3        30.03R
OSCEOLA        CLEAR     64  64 100 SE3       30.04S
$$

WIZ003>005-009-010-017-018-311000-
NORTH CENTRAL WISCONSIN

CITY           SKY/WX    TMP DP  RH WIND       PRES   REMARKS
MANITOWISH WTR FOG       51  51 100 CALM      30.10S VSB 3/4
ARBOR VITAE    CLEAR     53  52  94 CALM      30.10S
WOODRUFF       CLEAR     53  52  94 CALM      30.10S
RHINELANDER    CLEAR     50  47  89 CALM      30.10S FOG
EAGLE RIVER    CLEAR     50  50 100 CALM      30.10S
LAND O LAKES   CLEAR     48  48  99 CALM      30.11F FOG
PHILLIPS       MOCLDY    57  56  95 CALM      30.08S
TOMAHAWK       CLEAR     46  45  95 CALM      30.09S
MEDFORD        CLEAR     54  54 100 CALM      30.08R
MERRILL        CLEAR     50  50 100 CALM      30.09S
$$

WIZ029-030-035-036-043>047-311000-
CENTRAL WISCONSIN

CITY           SKY/WX    TMP DP  RH WIND       PRES   REMARKS
WAUSAU         CLEAR     55  54  96 CALM      30.07R
MOSINEE        CLEAR     55  54  94 CALM      30.09R
MARSHFIELD     CLEAR     57  53  86 E3        30.07R
STEVENS POINT  CLEAR     52  51  97 CALM      30.07S
WAUPACA        CLEAR     57  56  99 CALM      30.06S
WAUTOMA        CLEAR     55  53  93 CALM      30.07R
WISC RAPIDS    CLEAR     54  52  93 CALM      30.07S
CAMP DOUGLAS   CLEAR     54  54 100 E3        30.05S FOG
$$

WIZ011>013-019>022-031-037>040-048>050-311000-
NORTHEAST WISCONSIN

CITY           SKY/WX    TMP DP  RH WIND       PRES   REMARKS
ANTIGO         CLEAR     49  49  99 CALM      30.09S
SHAWANO        CLEAR     56  54  91 CALM      30.07R
OCONTO         PTCLDY    58  58 100 CALM      30.04R
STURGEON BAY   CLEAR     59  58  96 CALM      30.05R
GREEN BAY      PTCLDY    57  57 100 NW5       30.04R
MANITOWOC      NOT AVBL
APPLETON       PTCLDY    59  57  94 N5        30.04R
CLINTONVILLE   CLEAR     55  52  88 N3        30.06S
OSHKOSH        CLEAR     59  55  87 W3        30.04R
$$

WIZ032>034-041-042-053>061-311000-
SOUTHWEST WISCONSIN

CITY           SKY/WX    TMP DP  RH WIND       PRES   REMARKS
LA CROSSE      CLOUDY    67  61  81 SE5       30.03R
SPARTA         CLEAR     56  56  99 CALM      30.06R
VIROQUA        CLOUDY    61  59  93 E5        30.06R
BOSCOBEL       FOG       60  59  96 CALM      30.04S VSB 3/4
PRAIRIE DU CHI   N/A     63  60  90 CALM      30.04R
PLATTEVILLE    CLEAR     62  61  98 E5        30.05R
$$

WIZ056-057-062-063-064-067-068-311000-
SOUTH CENTRAL WISCONSIN

CITY           SKY/WX    TMP DP  RH WIND       PRES   REMARKS
REEDSBURG      CLEAR     57  57 100 CALM      30.05F
BARABOO/DELLS  MOCLDY    56  54  93 CALM      30.06R
LONE ROCK      NOT AVBL
MINERAL POINT  CLEAR     63  59  88 CALM      30.05S
MADISON        CLEAR     58  56  93 CALM      30.04S
MIDDLETON      CLEAR     57  57 100 CALM      30.05S
WATERTOWN      CLEAR     58  58 100 CALM      30.04R
MONROE         PTCLDY    61  59  94 N5        30.04S
JANESVILLE     PTCLDY    59  59 100 CALM      30.03S
$$

WIZ051-052-058>065-066-070>072-311000-
SOUTHEAST WISCONSIN

CITY           SKY/WX    TMP DP  RH WIND       PRES   REMARKS
MILWAUKEE      PTCLDY    67  63  87 W5        30.02R
WAUKESHA       PTCLDY    59  59 100 W3        30.04S
MILWAUKEE/TIMM CLEAR     61  57  88 CALM      30.03S
RACINE         MOCLDY    66  63  90 NW3       30.03R
BURLINGTON     CLEAR     56  56  99 CALM      30.03R
KENOSHA        CLEAR     65  62  90 NW6       30.02S
FOND DU LAC    CLEAR     56  54  93 CALM      30.05R
SHEBOYGAN      CLOUDY    61  58  90 CALM      30.03S
WEST BEND      CLEAR     55  55 100 CALM      30.04R
JUNEAU         CLEAR     57  56  96 NW3       30.06R
$$

LSZ147-162-311000-
LAKE SUPERIOR

STATION/POSITION TIME  TEMP    WIND        PRES    WAVE
                       AIR SEA DIR/SP/G            HT/PER
                 (UTC) (F)     (DEG/KT/KT) (MB)    (FT/S)
W MID LAKE BUOY  0750   65 63  200/  4/  6 1016.8R   1
DEVILS ISLAND    0800   67     200/  6/  8 1016.6F
PORT WING        0840   58      CALM  /  3 1016.9F
SAXON HARBOR     0840   65     180/  4/  7 1016.9S
$$

LMZ867-665-643>646-311000-
LAKE MICHIGAN

STATION/POSITION TIME  TEMP    WIND        PRES    WAVE
                       AIR SEA DIR/SP/G            HT/PER
                 (UTC) (F)     (DEG/KT/KT) (MB)    (FT/S)
CHAMBERS ISLAND  0800   70      40/  8/ 10 1016.9S
N MID LAKE BUOY  0750   70 70  100/ 12/ 14 1016.5S   1/ 4
NORTHPORT PIER   0800   70      80/ 10/ 13 1016.6F
SISTER BAY       0806   65     120/  5/  6   N/A
ALGOMA LAKESHORE 0813          320/  7/  8   N/A
KEWAUNEE LAKESHO 0800   61     300/  3/  5 1016.3S
SHEBOYGAN LAKESH 0800   65     330/  5/  6 1016.8S
PORT WASHINGTON  0800   67     320/  3/  3 1017.3S
ATWATER BUOY     0800   65 65  320/  4/  6 1017.9F
MILWAUKEE LAKESH 0810   66     330/  4/  5   N/A
S MID LAKE BUOY  0750   70 73   80/  8/ 10 1015.3F   1/ 5
KENOSHA   LAKESH 0800   67     300/  2/  4 1015.9F
$$

TC  - TEMPERATURE IN CELSIUS
VSB - VISIBILITY IN STATUTE MILES
WCI - WIND CHILL INDEX
HX  - HEAT INDEX




USA.gov is the U.S. government's official web portal to all federal, state and local government web resources and services.